EW8633 Weather Reports


time (UTC)temp
C
wind
direction
speed
KPH
gust
KPH
rain 1hr
cm
rain 24hr
cm
rain mn
cm
humidity
%
barometer
mb
20260505100803 17 226 1.6 3.2 0.00 0.00 0.00 71 996.6
20260505100302 17 227 1.6 3.2 0.00 0.00 0.00 70 996.7
20260505094802 17 227 1.6 3.2 0.00 0.00 0.00 69 996.4
20260505094305 17 228 1.6 3.2 0.00 0.00 0.00 69 996.4
20260505090803 18 230 4.8 8.0 0.00 0.00 0.00 66 996.0
20260505090305 18 230 4.8 8.0 0.00 0.00 0.00 66 996.1
20260505085804 18 229 4.8 8.0 0.00 0.00 0.00 66 996.2
20260505085304 18 229 4.8 8.0 0.00 0.00 0.00 66 996.3
20260505084803 18 230 4.8 8.0 0.00 0.00 0.00 65 996.2
20260505083803 18 229 4.8 9.7 0.00 0.00 0.00 65 996.4
20260505083303 18 229 4.8 8.0 0.00 0.00 0.00 65 996.4
20260505082804 18 229 4.8 8.0 0.00 0.00 0.00 65 996.4
20260505082304 18 228 3.2 8.0 0.00 0.00 0.00 65 996.5
20260505080303 18 84 3.2 8.0 0.00 0.00 0.00 65 996.7
20260505075304 18 88 4.8 8.0 0.00 0.00 0.00 64 996.8
20260505073303 18 90 4.8 8.0 0.00 0.00 0.00 64 996.8
20260505072804 18 105 3.2 4.8 0.00 0.00 0.00 64 996.9
20260505072305 18 113 1.6 4.8 0.00 0.00 0.00 63 997.1
20260505070803 18 97 3.2 8.0 0.00 0.00 0.00 62 997.5
20260505070304 18 126 3.2 8.0 0.00 0.00 0.00 61 997.6
20260505065803 19 107 3.2 9.7 0.00 0.00 0.00 60 997.7
20260505064803 19 149 4.8 11.3 0.00 0.00 0.00 58 997.9
20260505062304 19 156 8.0 16.1 0.00 0.00 0.00 58 998.1
20260505061303 20 142 6.4 14.5 0.00 0.00 0.00 57 998.0
20260505060803 20 84 8.0 12.9 0.00 0.00 0.00 56 998.2
20260505060304 20 156 6.4 11.3 0.00 0.00 0.00 57 998.2
20260505055803 19 100 4.8 16.1 0.00 0.00 0.00 58 998.2
20260505055304 20 138 3.2 16.1 0.00 0.00 0.00 58 998.2
20260505054803 20 70 4.8 11.3 0.00 0.00 0.00 58 998.1
20260505054304 20 204 4.8 14.5 0.00 0.00 0.00 57 998.2
20260505053803 20 209 3.2 14.5 0.00 0.00 0.00 57 998.1
20260505053303 20 190 8.0 16.1 0.00 0.00 0.00 56 998.2
20260505052803 20 172 8.0 16.1 0.00 0.00 0.00 56 998.1
20260505051804 20 197 9.7 16.1 0.00 0.00 0.00 55 998.2
20260505051303 20 197 4.8 14.5 0.00 0.00 0.00 56 998.2
20260505040803 20 97 6.4 16.1 0.00 0.00 0.00 55 998.4
20260505040304 20 159 4.8 16.1 0.00 0.00 0.00 55 998.4
20260505034303 21 153 4.8 11.3 0.00 0.00 0.00 54 998.3
20260505033303 21 139 6.4 19.3 0.00 0.00 0.00 53 998.3
20260505032305 21 165 4.8 9.7 0.00 0.00 0.00 53 998.3
20260505031803 21 143 4.8 12.9 0.00 0.00 0.00 53 998.3
20260505031304 21 99 8.0 14.5 0.00 0.00 0.00 52 998.2
20260505030803 21 125 8.0 12.9 0.00 0.00 0.00 52 998.2
20260505025305 21 145 3.2 9.7 0.00 0.00 0.00 53 998.1
20260505024804 21 127 4.8 11.3 0.00 0.00 0.00 52 998.1
20260505023803 21 111 6.4 16.1 0.00 0.00 0.00 52 998.0
20260505022304 21 194 6.4 14.5 0.00 0.00 0.00 50 997.9
20260505021304 22 167 4.8 9.7 0.00 0.00 0.00 50 997.8
20260505020803 22 172 4.8 9.7 0.00 0.00 0.00 49 997.7
20260505015304 22 173 4.8 9.7 0.00 0.00 0.00 48 997.6
20260505014303 22 180 4.8 12.9 0.00 0.00 0.00 48 997.5
20260505013303 22 171 3.2 8.0 0.00 0.00 0.00 48 997.5
20260505012804 23 116 4.8 14.5 0.00 0.00 0.00 46 997.5
20260505012304 23 153 3.2 8.0 0.00 0.00 0.00 47 997.5
20260505010303 23 166 4.8 11.3 0.00 0.00 0.00 46 997.5
20260505005803 23 131 6.4 14.5 0.00 0.00 0.00 46 997.4
20260505005304 23 184 4.8 11.3 0.00 0.00 0.00 46 997.4
20260505004804 23 116 4.8 12.9 0.00 0.00 0.00 45 997.2
20260505003303 23 198 6.4 12.9 0.00 0.00 0.00 45 997.2
20260505002304 24 166 8.0 16.1 0.00 0.00 0.00 44 997.3
20260505001803 24 147 8.0 16.1 0.00 0.00 0.00 44 997.1
20260505001304 24 140 8.0 16.1 0.00 0.00 0.00 44 997.2
20260505000803 25 109 6.4 19.3 0.00 0.00 0.00 44 997.2
20260504235803 25 132 8.0 19.3 0.00 0.00 0.00 41 997.2
20260504234804 25 156 4.8 29.0 0.00 0.00 0.00 41 997.2
20260504233803 25 149 4.8 19.3 0.00 0.00 0.00 42 997.3
20260504233303 25 203 3.2 9.7 0.00 0.00 0.00 41 997.3
20260504232304 26 130 3.2 19.3 0.00 0.00 0.00 41 997.4
20260504231804 26 224 4.8 19.3 0.00 0.00 0.00 39 997.3
20260504231303 26 193 4.8 12.9 0.00 0.00 0.00 39 997.4
20260504230804 26 158 6.4 19.3 0.00 0.00 0.00 39 997.4
20260504225305 26 109 4.8 22.5 0.00 0.00 0.00 38 997.5
20260504224804 26 142 4.8 12.9 0.00 0.00 0.00 37 997.5
20260504224303 26 16 4.8 19.3 0.00 0.00 0.00 38 997.5
20260504223803 26 5 8.0 16.1 0.00 0.00 0.00 38 997.5
20260504223304 26 154 6.4 16.1 0.00 0.00 0.00 37 997.5
20260504222803 26 133 9.7 20.9 0.00 0.00 0.00 38 997.5
20260504222305 27 131 11.3 22.5 0.00 0.00 0.00 36 997.5
20260504221304 27 132 8.0 12.9 0.00 0.00 0.00 38 997.5
20260504213304 27 133 4.8 20.9 0.00 0.00 0.00 38 997.7
20260504211804 27 131 9.7 20.9 0.00 0.00 0.00 38 997.6
20260504211303 27 128 14.5 22.5 0.00 0.00 0.00 38 997.7
20260504210303 27 132 12.9 25.7 0.00 0.00 0.00 37 997.9
20260504202804 28 126 9.7 14.5 0.00 0.00 0.00 36 998.3
20260504201803 27 324 9.7 16.1 0.00 0.00 0.00 40 998.4
20260504200303 27 130 14.5 20.9 0.00 0.00 0.00 38 998.7
20260504195804 27 130 14.5 20.9 0.00 0.00 0.00 37 998.8
20260504195304 27 128 9.7 16.1 0.00 0.00 0.00 38 998.8
20260504194804 27 128 9.7 16.1 0.00 0.00 0.00 38 998.9
20260504194304 27 122 11.3 22.5 0.00 0.00 0.00 38 999.0
20260504193304 27 131 11.3 20.9 0.00 0.00 0.00 37 999.2
20260504192804 27 129 9.7 16.1 0.00 0.00 0.00 37 999.3
20260504192304 27 122 8.0 20.9 0.00 0.00 0.00 37 999.2
20260504191804 27 121 11.3 19.3 0.00 0.00 0.00 38 999.2
20260504191303 27 322 8.0 12.9 0.00 0.00 0.00 38 999.4
20260504190804 27 320 8.0 14.5 0.00 0.00 0.00 38 999.6
20260504185804 27 324 8.0 16.1 0.00 0.00 0.00 40 999.5
20260504185304 27 128 8.0 16.1 0.00 0.00 0.00 37 999.6
20260504184304 27 131 14.5 20.9 0.00 0.00 0.00 40 999.7
20260504183803 27 46 8.0 12.9 0.00 0.00 0.00 42 999.7
20260504183304 26 115 8.0 32.2 0.00 0.00 0.00 39 999.8
20260504182304 26 142 9.7 29.0 0.00 0.00 0.00 40 1000.0
20260504181803 26 153 8.0 29.0 0.00 0.00 0.00 40 999.9
20260504181303 26 85 4.8 19.3 0.00 0.00 0.00 43 1000.1
20260504180303 26 107 6.4 16.1 0.00 0.00 0.00 39 1000.3
20260504174803 26 102 8.0 16.1 0.00 0.00 0.00 40 1000.3
20260504174303 26 327 8.0 19.3 0.00 0.00 0.00 41 1000.5
20260504173804 26 336 6.4 24.1 0.00 0.00 0.00 44 1000.6
20260504173304 26 123 4.8 19.3 0.00 0.00 0.00 44 1000.6
20260504172804 26 328 6.4 12.9 0.00 0.00 0.00 41 1000.5
20260504172304 26 108 4.8 16.1 0.00 0.00 0.00 43 1000.6
20260504171304 26 317 4.8 11.3 0.00 0.00 0.00 43 1000.7
20260504160304 24 228 4.8 4.8 0.00 0.00 0.00 49 1001.7
20260504150804 22 227 4.8 19.3 0.00 0.00 0.00 55 1002.0
20260504150304 22 228 4.8 4.8 0.00 0.00 0.00 55 1002.0
20260504140304 20 230 4.8 9.7 0.00 0.00 0.00 64 1002.3
20260504130803 17 125 4.8 9.7 0.00 0.00 0.00 70 1001.9
20260504130304 17 154 4.8 8.0 0.00 0.00 0.00 70 1001.9